timestamp,surface_pressure_avg,surface_temp_avg,battery_voltage,lat,long
2018-12-10 00:00:00+00:00,320.7131,4.1,12.97,47.84626,-54.09684
2018-12-10 00:10:00+00:00,327.0579,4.1,12.97,47.84626,-54.09684
2018-12-10 00:20:00+00:00,327.8797,4.1,13.05,47.84626,-54.09684
2018-12-10 00:30:00+00:00,331.8963,4.1,13.05,47.84626,-54.09684
2018-12-10 00:40:00+00:00,338.1746,4.1,13.05,47.84626,-54.09684
2018-12-10 00:50:00+00:00,339.4929,4.0,13.05,47.84626,-54.09684
2018-12-10 01:00:00+00:00,339.258,4.0,12.97,47.84626,-54.09684
2018-12-10 01:10:00+00:00,343.7712,3.99,12.89,47.84626,-54.09684
2018-12-10 01:20:00+00:00,348.9646,3.9,12.97,47.84626,-54.09684
2018-12-10 01:30:00+00:00,342.6496,3.9,12.97,47.84626,-54.09684
2018-12-10 01:40:00+00:00,338.5696,4.0,13.05,47.84626,-54.09684
2018-12-10 01:50:00+00:00,341.7379,4.0,13.05,47.84626,-54.09684
2018-12-10 02:00:00+00:00,340.7197,4.0,12.97,47.84626,-54.09684
2018-12-10 02:10:00+00:00,330.7264,4.0,12.89,47.84626,-54.09684
2018-12-10 02:20:00+00:00,329.3079,4.0,12.97,47.84626,-54.09684
2018-12-10 02:30:00+00:00,329.1463,4.0,12.97,47.84626,-54.09684
2018-12-10 02:40:00+00:00,320.778,4.0,13.05,47.84626,-54.09684
2018-12-10 02:50:00+00:00,314.2097,4.0,13.05,47.84626,-54.09684
2018-12-10 03:00:00+00:00,315.7913,3.99,12.97,47.84626,-54.09684
2018-12-10 03:10:00+00:00,310.7813,3.94,12.89,47.84626,-54.09684
2018-12-10 03:20:00+00:00,303.068,3.9,12.97,47.84626,-54.09684
2018-12-10 03:30:00+00:00,299.0363,3.9,12.97,47.84626,-54.09684
2018-12-10 03:40:00+00:00,297.4564,3.9,13.05,47.84626,-54.09684
2018-12-10 03:50:00+00:00,288.2897,3.9,13.05,47.84626,-54.09684
2018-12-10 04:00:00+00:00,281.1847,3.9,12.97,47.84626,-54.09684
2018-12-10 04:10:00+00:00,276.3097,3.9,12.89,47.84626,-54.09684
2018-12-10 04:20:00+00:00,272.1848,3.9,12.97,47.84626,-54.09684
2018-12-10 04:30:00+00:00,265.1164,3.9,12.97,47.84626,-54.09684
2018-12-10 04:40:00+00:00,255.7148,3.9,12.97,47.84626,-54.09684
2018-12-10 04:50:00+00:00,245.0148,3.89,13.05,47.84626,-54.09684
2018-12-10 05:00:00+00:00,238.4031,3.9,12.97,47.84626,-54.09684
2018-12-10 05:10:00+00:00,234.2047,3.9,12.89,47.84626,-54.09684
2018-12-10 05:20:00+00:00,228.7398,3.9,12.97,47.84626,-54.09684
2018-12-10 05:30:00+00:00,222.3497,3.9,12.97,47.84626,-54.09684
2018-12-10 05:40:00+00:00,218.2481,3.9,12.97,47.84626,-54.09684
2018-12-10 05:50:00+00:00,216.6648,3.89,12.97,47.84626,-54.09684
2018-12-10 06:00:00+00:00,212.7081,3.87,12.89,47.84626,-54.09684
2018-12-10 06:10:00+00:00,207.2948,3.8,12.81,47.84626,-54.09684
2018-12-10 06:20:00+00:00,203.0248,3.8,12.97,47.84626,-54.09684
2018-12-10 06:30:00+00:00,199.5565,3.83,12.97,47.84626,-54.09684
2018-12-10 06:40:00+00:00,196.7148,3.88,12.97,47.84626,-54.09684
2018-12-10 06:50:00+00:00,196.6465,3.89,12.97,47.84626,-54.09684
2018-12-10 07:00:00+00:00,199.5781,3.89,12.89,47.84626,-54.09684
2018-12-10 07:10:00+00:00,200.9464,3.89,12.81,47.84626,-54.09684
2018-12-10 07:20:00+00:00,202.5281,3.89,12.97,47.84626,-54.09684
2018-12-10 07:30:00+00:00,207.6898,3.89,12.97,47.84626,-54.09684
2018-12-10 07:40:00+00:00,213.6314,3.9,12.97,47.84626,-54.09684
2018-12-10 07:50:00+00:00,215.3931,3.9,12.97,47.84626,-54.09684
2018-12-10 08:00:00+00:00,217.2031,3.89,12.89,47.84626,-54.09684
2018-12-10 08:10:00+00:00,221.3931,3.89,12.81,47.84626,-54.09684
2018-12-10 08:20:00+00:00,225.9331,3.89,12.97,47.84626,-54.09684
2018-12-10 08:30:00+00:00,228.6031,3.88,12.97,47.84626,-54.09684
2018-12-10 08:40:00+00:00,233.5631,3.81,12.97,47.84626,-54.09684
2018-12-10 08:50:00+00:00,241.2297,3.8,12.97,47.84626,-54.09684
2018-12-10 09:00:00+00:00,244.1897,3.8,12.89,47.84626,-54.09684
2018-12-10 09:10:00+00:00,243.2981,3.8,12.81,47.84626,-54.09684
2018-12-10 09:20:00+00:00,247.943,3.79,12.97,47.84626,-54.09684
2018-12-10 09:30:00+00:00,255.8065,3.79,12.97,47.84626,-54.09684
2018-12-10 09:40:00+00:00,254.0048,3.73,12.97,47.84626,-54.09684
2018-12-10 09:50:00+00:00,254.6964,3.7,12.97,47.84626,-54.09684
2018-12-10 10:00:00+00:00,264.2397,3.7,12.89,47.84626,-54.09684
2018-12-10 10:10:00+00:00,273.3015,3.7,12.81,47.84626,-54.09684
2018-12-10 10:20:00+00:00,276.8381,3.7,12.89,47.84626,-54.09684
2018-12-10 10:30:00+00:00,284.0281,3.7,12.89,47.84626,-54.09684
2018-12-10 10:40:00+00:00,294.4481,3.7,12.97,47.84626,-54.09684
2018-12-10 10:50:00+00:00,302.578,3.69,12.97,47.84626,-54.09684
2018-12-10 11:00:00+00:00,308.3613,3.69,12.89,47.84626,-54.09684
2018-12-10 11:10:00+00:00,314.3014,3.7,12.81,47.84626,-54.09684
2018-12-10 11:20:00+00:00,321.7196,3.7,12.89,47.84626,-54.09684
2018-12-10 11:30:00+00:00,329.718,3.7,12.97,47.84626,-54.09684
2018-12-10 11:40:00+00:00,335.5197,3.7,12.97,47.84626,-54.09684
2018-12-10 11:50:00+00:00,340.4597,3.69,13.05,47.84626,-54.09684
2018-12-10 12:00:00+00:00,347.8679,3.69,12.97,47.84626,-54.09684
2018-12-10 12:10:00+00:00,354.4563,3.66,12.97,47.84626,-54.09684
2018-12-10 12:20:00+00:00,356.6545,3.67,13.05,47.84626,-54.09684
2018-12-10 12:30:00+00:00,358.1546,3.67,13.13,47.84626,-54.09684
2018-12-10 12:40:00+00:00,361.4162,3.68,13.29,47.84626,-54.09684
2018-12-10 12:50:00+00:00,368.8163,3.68,13.37,47.84626,-54.09684
2018-12-10 13:00:00+00:00,369.3479,3.66,13.44,47.84626,-54.09684
2018-12-10 13:10:00+00:00,370.343,3.69,16.39,47.84626,-54.09684
2018-12-10 13:20:00+00:00,371.3163,3.7,14.88,47.84626,-54.09684
2018-12-10 13:30:00+00:00,373.9747,3.7,14.4,47.84626,-54.09684
2018-12-10 13:40:00+00:00,375.7446,3.7,16.47,47.84626,-54.09684
2018-12-10 13:50:00+00:00,373.8796,3.7,16.87,47.84626,-54.09684
2018-12-10 14:00:00+00:00,374.2411,3.7,14.88,47.84626,-54.09684
2018-12-10 14:10:00+00:00,373.4045,3.7,16.23,47.84626,-54.09684
2018-12-10 14:20:00+00:00,370.1496,3.7,16.07,47.84626,-54.09684
2018-12-10 14:30:00+00:00,367.4313,3.74,15.27,47.84626,-54.09684
2018-12-10 14:40:00+00:00,364.4879,3.77,15.2,47.84626,-54.09684
2018-12-10 14:50:00+00:00,362.8947,3.78,15.2,47.84626,-54.09684
2018-12-10 15:00:00+00:00,358.5696,3.78,14.96,47.84626,-54.09684
2018-12-10 15:10:00+00:00,354.4379,3.79,14.96,47.84626,-54.09684
2018-12-10 15:20:00+00:00,347.6813,3.79,15.04,47.84626,-54.09684
2018-12-10 15:30:00+00:00,341.6163,3.78,15.04,47.84626,-54.09684
2018-12-10 15:40:00+00:00,334.933,3.78,14.96,47.84626,-54.09684
2018-12-10 15:50:00+00:00,328.1797,3.79,15.04,47.84626,-54.09684
2018-12-10 16:00:00+00:00,320.9047,3.78,14.88,47.84626,-54.09684
2018-12-10 16:10:00+00:00,315.323,3.77,14.88,47.84626,-54.09684
2018-12-10 16:20:00+00:00,310.2063,3.73,14.96,47.84626,-54.09684
2018-12-10 16:30:00+00:00,303.8514,3.7,14.96,47.84626,-54.09684
2018-12-10 16:40:00+00:00,298.628,3.7,14.96,47.84626,-54.09684
2018-12-10 16:50:00+00:00,293.0013,3.7,14.88,47.84626,-54.09684
2018-12-10 17:00:00+00:00,284.4397,3.7,14.8,47.84626,-54.09684
2018-12-10 17:10:00+00:00,276.0281,3.7,14.8,47.84626,-54.09684
2018-12-10 17:20:00+00:00,266.6464,3.69,14.8,47.84626,-54.09684
2018-12-10 17:30:00+00:00,258.3814,3.69,14.8,47.84626,-54.09684
2018-12-10 17:40:00+00:00,249.8614,3.69,14.8,47.84626,-54.09684
2018-12-10 17:50:00+00:00,241.4847,3.67,14.8,47.84626,-54.09684
2018-12-10 18:00:00+00:00,234.0247,3.66,14.72,47.84626,-54.09684
2018-12-10 18:10:00+00:00,228.4364,3.67,14.64,47.84626,-54.09684
2018-12-10 18:20:00+00:00,223.6248,3.68,14.72,47.84626,-54.09684
2018-12-10 18:30:00+00:00,220.2914,3.69,14.64,47.84626,-54.09684
2018-12-10 18:40:00+00:00,217.0114,3.7,14.64,47.84626,-54.09684
2018-12-10 18:50:00+00:00,214.1764,3.7,14.56,47.84626,-54.09684
2018-12-10 19:00:00+00:00,211.1864,3.7,14.32,47.84626,-54.09684
2018-12-10 19:10:00+00:00,209.4181,3.7,14.08,47.84626,-54.09684
2018-12-10 19:20:00+00:00,208.7731,3.7,14.0,47.84626,-54.09684
2018-12-10 19:30:00+00:00,209.1215,3.7,13.92,47.84626,-54.09684
2018-12-10 19:40:00+00:00,205.5015,3.7,13.84,47.84626,-54.09684
2018-12-10 19:50:00+00:00,204.5048,3.7,13.84,47.84626,-54.09684
2018-12-10 20:00:00+00:00,211.4531,3.7,13.68,47.84626,-54.09684
2018-12-10 20:10:00+00:00,217.7931,3.7,13.53,47.84626,-54.09684
2018-12-10 20:20:00+00:00,219.2498,3.7,13.44,47.84626,-54.09684
2018-12-10 20:30:00+00:00,224.9148,3.7,13.44,47.84626,-54.09684
2018-12-10 20:40:00+00:00,237.1331,3.7,13.37,47.84626,-54.09684
2018-12-10 20:50:00+00:00,241.3664,3.7,13.37,47.84626,-54.09684
2018-12-10 21:00:00+00:00,241.8564,3.69,13.29,47.84626,-54.09684
2018-12-10 21:10:00+00:00,246.6548,3.69,13.13,47.84626,-54.09684
2018-12-10 21:20:00+00:00,251.2315,3.69,13.21,47.84626,-54.09684
2018-12-10 21:30:00+00:00,253.3481,3.68,13.13,47.84626,-54.09684
2018-12-10 21:40:00+00:00,256.2264,3.66,13.21,47.84626,-54.09684
2018-12-10 21:50:00+00:00,263.3397,3.65,13.13,47.84626,-54.09684
2018-12-10 22:00:00+00:00,269.5664,3.65,13.05,47.84626,-54.09684
2018-12-10 22:10:00+00:00,274.478,3.65,12.97,47.84626,-54.09684
2018-12-10 22:20:00+00:00,278.4847,3.6,13.05,47.84626,-54.09684
2018-12-10 22:30:00+00:00,280.843,3.51,13.05,47.84626,-54.09684
2018-12-10 22:40:00+00:00,284.118,3.53,13.05,47.84626,-54.09684
2018-12-10 22:50:00+00:00,290.003,3.5,13.05,47.84626,-54.09684
2018-12-10 23:00:00+00:00,292.928,3.5,13.05,47.84626,-54.09684
2018-12-10 23:10:00+00:00,292.1614,3.5,12.97,47.84626,-54.09684
2018-12-10 23:20:00+00:00,294.1714,3.5,13.05,47.84626,-54.09684
2018-12-10 23:30:00+00:00,299.1597,3.5,13.05,47.84626,-54.09684
2018-12-10 23:40:00+00:00,304.3763,3.5,13.05,47.84626,-54.09684
2018-12-10 23:50:00+00:00,307.458,3.5,13.05,47.84626,-54.09684
